TimeSAST,TemperatureF,Dew PointF,Humidity,Sea Level PressureIn,VisibilityMPH,Wind Direction,Wind SpeedMPH,Gust SpeedMPH,PrecipitationIn,Events,Conditions,WindDirDegrees,DateUTC
12:00 AM,73.4,17.6,12,30.06,-9999.0,NNE,4.6,-,N/A,,Unknown,20,2012-10-05 22:00:00
1:00 AM,77.0,23.0,13,30.06,-9999.0,North,4.6,-,N/A,,Unknown,10,2012-10-05 23:00:00
2:00 AM,74,25,8,,,ENE,2.3,,,,,60,2012-10-06 00:00:00
2:00 AM,73.4,26.6,18,30.06,-9999.0,ENE,2.3,-,N/A,,Unknown,60,2012-10-06 00:00:00
3:00 AM,71.6,28.4,20,30.06,-9999.0,NNE,9.2,-,N/A,,Unknown,30,2012-10-06 01:00:00
4:00 AM,64.4,28.4,26,30.06,-9999.0,East,5.8,-,N/A,,Unknown,90,2012-10-06 02:00:00
5:00 AM,62,32,20,,19,East,6.9,,,,,100,2012-10-06 03:00:00
5:00 AM,60.8,32.0,34,30.06,-9999.0,East,6.9,-,N/A,,Clear,100,2012-10-06 03:00:00
6:00 AM,60.8,35.6,39,30.09,-9999.0,East,5.8,-,N/A,,Clear,100,2012-10-06 04:00:00
7:00 AM,68.0,42.8,40,30.09,-9999.0,ENE,5.8,-,N/A,,Clear,60,2012-10-06 05:00:00
7:38 AM,73.4,42.8,33,30.09,-9999.0,NNE,16.1,-,N/A,,Clear,30,2012-10-06 05:38:00
8:00 AM,76,43,21,,19,NNE,20.7,,,,,30,2012-10-06 06:00:00
8:00 AM,75.2,42.8,31,30.09,-9999.0,NNE,19.6,-,N/A,,Clear,30,2012-10-06 06:00:00
9:00 AM,78.8,41.0,26,30.09,-9999.0,NNE,20.7,-,N/A,,Clear,20,2012-10-06 07:00:00
9:31 AM,82.4,41.0,23,30.09,-9999.0,NNE,19.6,-,N/A,,Clear,20,2012-10-06 07:31:00
10:00 AM,82.4,39.2,21,30.09,-9999.0,NNE,19.6,-,N/A,,Clear,20,2012-10-06 08:00:00
11:00 AM,86.0,37.4,18,30.06,-9999.0,North,17.3,-,N/A,,Clear,10,2012-10-06 09:00:00
12:00 PM,89.6,32.0,13,30.06,-9999.0,North,13.8,-,N/A,,Clear,10,2012-10-06 10:00:00
1:00 PM,91.4,28.4,10,30.04,-9999.0,North,11.5,-,N/A,,Clear,360,2012-10-06 11:00:00
2:00 PM,94,21,4,,19,North,11.5,,,,Clear,350,2012-10-06 12:00:00
2:00 PM,93.2,23.0,8,30.01,-9999.0,North,10.4,23.0,N/A,,Clear,350,2012-10-06 12:00:00
3:00 PM,93.2,14.0,5,30.01,-9999.0,NNW,9.2,-,N/A,,Clear,340,2012-10-06 13:00:00
4:00 PM,93.2,21.2,7,29.98,-9999.0,North,12.7,-,N/A,,Clear,10,2012-10-06 14:00:00
5:00 PM,91.4,21.2,8,29.98,-9999.0,North,10.4,-,N/A,,Clear,360,2012-10-06 15:00:00
6:00 PM,89.6,23.0,9,29.98,-9999.0,North,11.5,-,N/A,,Clear,10,2012-10-06 16:00:00
7:00 PM,84.2,21.2,10,30.01,-9999.0,NNE,9.2,-,N/A,,Clear,20,2012-10-06 17:00:00
8:00 PM,82,25,6,,19,NNE,10.4,,,,,20,2012-10-06 18:00:00
8:00 PM,80.6,26.6,14,30.01,-9999.0,NNE,9.2,-,N/A,,Clear,20,2012-10-06 18:00:00
9:00 PM,77.0,26.6,16,30.04,-9999.0,NNE,8.1,-,N/A,,Unknown,30,2012-10-06 19:00:00
10:00 PM,73.4,26.6,18,30.04,-9999.0,NNE,8.1,-,N/A,,Unknown,30,2012-10-06 20:00:00
11:00 PM,77,23,6,,,NNE,10.4,,,,,20,2012-10-06 21:00:00
11:00 PM,77.0,24.8,14,30.04,-9999.0,NNE,9.2,-,N/A,,Unknown,20,2012-10-06 21:00:00